Zurück zum Katalog

COSMOS 2251 DEB

AktivLEO
NORAD 34065·DEBRIS·🇷🇺 Russia

Gestartet Jun 16, 1993 von Plesetsk Cosmodrome

Loading…

Nächste Überflüge (nächste 24 Stunden)

TLE

AktuellSource: Space-Track

Epoche: Sep 14, 2026, 01:50 UTC

1 34065U 93036KC  26257.07642594  .00000243  00000-0  88278-4 0  9994
2 34065  74.0339 110.8532 0016073 148.5668   8.7141 14.38289142921635

Verfolge COSMOS 2251 DEB in Echtzeit mit AllMySat

Download on the App Store